{"data":{"norad_id":56344,"intl_designator":"2023-058AD","name":"STARLINK-5974","alt_names":[],"object_type":"PAYLOAD","status":"ACTIVE","operator":null,"country":"US","launch_date":"2023-04-27","launch_site_code":"AFWTR","launch_vehicle":null,"mission":null,"orbit_class":"UNKNOWN","rcs_meters":null,"size_class":null,"mass_kg":null,"dimensions":null,"purposes":["comms"],"wikipedia_slug":null,"has_3d_model":false,"image_url":null,"decayed_at":null,"tle_current":{"epoch":"2026-05-25T00:07:28.966368Z","epoch_age_seconds":68560,"freshness":"FRESH","line1":"1 56344U 23058AD  26145.00519637 -.00008006  00000+0 -55101-3 0  9999","line2":"2 56344  97.4496 146.1296 0002124  90.1399 270.0072 15.05678121169686","mean_motion":15.05678121,"eccentricity":0.0002124,"inclination_deg":97.4496,"raan_deg":146.1296,"arg_perigee_deg":90.1399,"mean_anomaly_deg":270.0072,"bstar":-0.00055101,"rev_number":16968,"period_min":95.63797068683,"perigee_km":547.95348285516,"apogee_km":550.896311149,"semimajor_km":6927.5618970021,"source":"CELESTRAK","updated_at":"2026-05-25T13:38:18.005567Z"}}}